Weather observations for the past three days for
Sisseton, Sisseton Municipal Airport
Imperial (Metric)
Date Time (cdt) Wind (mph) Vis. (mi.) Weather Sky Cond. Temperature (ºF) Relative Humidity Wind Chill (°F) Heat Index (°F) Pressure Precipitation (in)
Air Dwpt 6 hour altimeter (in) sea level (mb) 1 hr 3 hr 6 hr
Max. Min.
07 11:56 N 9 0.00 NULL NULL 55 23 29% 29.86 1012.2
07 10:56 NW 8 0.00 NULL NULL 55 23 29% 29.87 1012.4
07 09:56 Vrbl 5 0.00 NULL NULL 50 24.1 36% 49 29.88 1012.5
07 08:56 S 6 0.00 NULL NULL 46 27 47% 44 29.88 1012.7
07 07:56 S 6 0.00 NULL NULL 39 27 62% 35 29.88 1012.7
07 06:56 S 3 0.00 NULL NULL 27 21.9 32 25 81% 29.87 1012.9
07 05:56 SW 6 0.00 NULL NULL 26.1 23 88% 20 29.88 1013.1
07 04:56 S 5 0.00 NULL NULL 27 23 85% 22 29.88 1013.3
07 03:56 S 6 0.00 NULL NULL 30 23 75% 25 29.88 1013.3
07 02:56 S 5 0.00 NULL NULL 30 21.9 72% 26 29.89 1013.6
07 01:56 S 8 0.00 NULL NULL 30 23 75% 23 29.91 1014.1
07 00:56 S 5 0.00 NULL NULL 28 21.9 46.9 27 78% 24 29.92 1014.6
06 23:56 S 6 0.00 NULL NULL 28.9 21.9 75% 23 29.93 1014.9
06 22:56 S 7 0.00 NULL NULL 33.1 24.1 70% 28 29.95 1015.5
06 21:56 SE 3 0.00 NULL NULL 36 21.9 57% 29.96 1015.9
06 20:56 NE 6 0.00 NULL NULL 37.9 21.9 52% 34 29.95 1015.7
06 19:56 N 10 0.00 NULL NULL 44.1 21.9 41% 39 29.95 1015.3
06 18:56 NW 13 0.00 NULL NULL 46.9 21.9 48.9 43 37% 42 29.95 1015.4
06 17:56 N 13 0.00 NULL NULL 46.9 21.9 37% 42 29.97 1015.8
06 16:56 NW 15 G 22 0.00 NULL NULL 46.9 21.9 37% 41 29.97 1015.9
06 15:56 NW 14 0.00 NULL NULL 46 21.9 38% 40 29.99 1016.6
06 14:56 NW 16 G 25 0.00 NULL NULL 44.1 21 40% 37 30.01 1017.2
06 13:56 NW 13 G 23 0.00 NULL NULL 44.1 23 43% 38 30.01 1017.4
06 12:56 NW 8 G 21 0.00 NULL NULL 43 21.9 43 35.1 43% 39 30.03 1018.1
06 11:56 NW 8 0.00 NULL NULL 42.1 21.9 45% 38 30.04 1018.8
06 10:56 Vrbl 7 0.00 NULL NULL 39.9 21 47% 36 30.05 1019.2
06 09:56 NW 9 0.00 NULL NULL 39 21 48% 33 30.06 1019.3
06 08:56 NW 12 0.00 NULL NULL 37.9 24.1 57% 31 30.06 1019.2
06 07:56 NW 9 0.00 NULL NULL 36 25 64% 30 30.05 1018.7
06 06:56 NW 8 0.00 NULL NULL 35.1 26.1 37 35.1 70% 29 30.02 1017.9
06 05:56 NW 9 0.00 NULL NULL 35.1 26.1 70% 29 30.01 1017.1
06 04:56 NW 8 0.00 NULL NULL 36 25 64% 30 30 1017.0
06 03:56 NW 6 0.00 NULL NULL 35.1 26.1 70% 31 29.99 1016.7
06 02:56 NW 6 0.00 NULL NULL 36 25 64% 32 29.99 1016.5
06 01:56 NW 7 0.00 NULL NULL 36 26.1 67% 31 29.99 1016.7
06 00:56 NW 6 0.00 NULL NULL 35.1 25 45 30.9 67% 31 29.99 1016.8
05 23:56 NW 8 0.00 NULL NULL 34 24.1 67% 28 29.98 1016.5
05 22:56 NW 7 0.00 NULL NULL 32 24.1 73% 26 29.98 1016.6
05 21:56 NW 8 0.00 NULL NULL 35.1 24.1 64% 29 29.97 1015.9
05 20:56 N 10 0.00 NULL NULL 39.9 23 51% 34 29.94 1015.0
05 19:56 NW 14 0.00 NULL NULL 43 21.9 43% 37 29.93 1014.4
05 18:56 N 16 G 26 0.00 NULL NULL 44.1 21.9 48 44.1 41% 37 29.91 1014.3
05 17:56 NW 17 0.00 NULL NULL 46 21.9 38% 40 29.91 1014.1
05 16:56 NW 15 0.00 NULL NULL 46.9 23 39% 41 29.91 1014.1
05 15:56 NW 18 0.00 NULL NULL 46 23 40% 39 29.91 1014.1
05 14:56 N 14 G 22 0.00 NULL NULL 46.9 23 39% 42 29.91 1013.8
05 13:56 N 16 0.00 NULL NULL 46 23 40% 40 29.9 1013.5
05 12:56 NW 21 G 29 0.00 Breezy NULL 45 19.9 46.9 32 37% 37 29.89 1013.2
05 11:56 NW 24 G 31 0.00 Breezy NULL 46 19 34% 38 29.88 1012.7
05 10:56 NW 17 G 30 0.00 NULL NULL 46 19.9 35% 40 29.87 1012.5
05 09:56 NW 22 G 30 0.00 Breezy NULL 45 21 39% 37 29.86 1012.1
05 08:56 NW 21 G 25 0.00 Breezy NULL 44.1 21.9 41% 36 29.85 1011.6
05 07:56 NW 14 0.00 NULL NULL 41 25 53% 34 29.84 1011.2
05 06:56 W 5 0.00 NULL NULL 32 26.1 39 28.9 79% 28 29.82 1010.9
05 05:56 W 5 0.00 NULL NULL 30 26.1 85% 26 29.82 1010.8
05 04:56 NW 3 0.00 NULL NULL 30 26.1 85% 29.81 1010.6
05 03:56 NW 6 0.00 NULL NULL 28.9 25 85% 23 29.81 1010.6
05 02:56 W 5 0.00 NULL NULL 34 27 76% 30 29.8 1009.9
05 01:56 NW 5 0.00 NULL NULL 36 27 70% 33 29.8 1009.9
05 00:56 NW 9 0.00 NULL NULL 37.9 26.1 51.1 36 62% 32 29.79 1009.5
04 23:56 W 8 0.00 NULL NULL 37 25 62% 32 29.77 1009.0
04 22:56 W 8 0.00 NULL NULL 37 26.1 65% 32 29.77 1008.9
04 21:56 W 7 0.00 NULL NULL 39 27 62% 35 29.76 1008.6
04 20:56 NW 9 0.00 NULL NULL 45 27 49% 41 29.73 1007.4
04 19:56 NW 17 G 25 0.00 NULL NULL 48 26.1 42% 42 29.72 1006.6
04 18:56 NW 18 G 30 0.00 NULL NULL 51.1 25 54 48.9 36% 29.7 1006.0
04 17:56 NW 24 G 31 0.00 Breezy NULL 50 25 38% 43 29.7 1006.1
04 16:56 NW 25 G 37 0.00 Breezy NULL 51.1 24.1 35% 29.7 1005.9
04 15:56 NW 25 G 39 0.00 Breezy NULL 52 23 32% 29.69 1005.5
04 14:56 NW 28 G 43 0.00 Windy NULL 52 23 32% 29.68 1004.6
04 13:56 W 21 G 36 0.00 Breezy NULL 53.1 27 37% 29.67 1004.3
04 12:56 NW 30 G 41 0.00 Windy NULL 48.9 28 52 46.9 44% 41 29.66 1004.2
Date Time (cdt) Wind (mph) Vis. (mi.) Weather Sky Cond. Air Dwpt Max. Min. Relative Humidity Wind Chill (°F) Heat Index (°F) altimeter (in) sea level (mb) 1 hr 3 hr 6 hr
6 hour
Temperature (ºF) Pressure Precipitation (in)